Voltar ao catálogo

DELTA 1 DEB

AtivoSSO
NORAD 12204·DEBRIS·🇺🇸 United States

Lançado Mar 5, 1978 de Vandenberg Space Force Base

Loading…

Próximas Passagens (próximas 24 horas)

TLE

AtualizadoSource: Space-Track

Época: Sep 14, 2026, 13:31 UTC

1 12204U 78026AV  26257.56344757  .00000247  00000-0  10752-3 0  9996
2 12204  98.7425 282.3073 0077657 317.8948  41.6284 14.31018034370430

Acompanhe DELTA 1 DEB em tempo real com AllMySat

Download on the App Store